Time,TemperatureF,DewpointF,PressureIn,WindDirection,WindDirectionDegrees,WindSpeedMPH,WindSpeedGustMPH,Humidity,HourlyPrecipIn,Conditions,Clouds,dailyrainin,SoftwareType,DateUTC
2013-04-23 00:01:00,56.2,48.0,30.03,East,84,3.0,13.0,74,0.00,,,0.00,Wunderground v.1.15,2013-04-23 04:01:00,
2013-04-23 00:02:00,56.2,48.0,30.03,NE,56,3.0,13.0,74,0.00,,,0.00,Wunderground v.1.15,2013-04-23 04:02:00,
2013-04-23 00:04:00,56.2,48.0,30.03,ESE,103,3.0,13.0,74,0.00,,,0.00,Wunderground v.1.15,2013-04-23 04:04:00,
2013-04-23 00:05:00,56.2,48.0,30.03,East,82,3.0,13.0,74,0.00,,,0.00,Wunderground v.1.15,2013-04-23 04:05:00,
2013-04-23 00:08:00,56.2,48.0,30.03,NNE,12,3.0,13.0,74,0.00,,,0.00,Wunderground v.1.15,2013-04-23 04:08:00,
2013-04-23 00:14:00,56.0,48.2,30.03,ENE,66,2.0,13.0,75,0.00,,,0.00,Wunderground v.1.15,2013-04-23 04:14:00,
2013-04-23 00:19:00,56.0,47.8,30.03,East,86,1.0,13.0,74,0.00,,,0.00,Wunderground v.1.15,2013-04-23 04:19:00,
2013-04-23 00:24:00,55.9,48.1,30.03,WNW,287,1.0,13.0,75,0.00,,,0.00,Wunderground v.1.15,2013-04-23 04:24:00,
2013-04-23 00:29:00,55.9,48.1,30.02,East,87,2.0,14.0,75,0.00,,,0.00,Wunderground v.1.15,2013-04-23 04:29:00,
2013-04-23 00:34:00,55.7,47.9,30.02,NE,50,3.0,13.0,75,0.00,,,0.00,Wunderground v.1.15,2013-04-23 04:34:00,
2013-04-23 00:40:00,55.6,47.8,30.02,ENE,78,3.0,13.0,75,0.00,,,0.00,Wunderground v.1.15,2013-04-23 04:40:00,
2013-04-23 00:45:00,55.4,48.0,30.02,NE,50,3.0,13.0,76,0.00,,,0.00,Wunderground v.1.15,2013-04-23 04:45:00,
2013-04-23 00:50:00,55.4,48.0,30.02,NNE,13,2.0,13.0,76,0.00,,,0.00,Wunderground v.1.15,2013-04-23 04:50:00,
2013-04-23 00:55:00,55.3,47.9,30.02,NW,322,1.0,13.0,76,0.00,,,0.00,Wunderground v.1.15,2013-04-23 04:55:00,
2013-04-23 01:00:00,55.3,47.9,30.02,East,80,2.0,13.0,76,0.00,,,0.00,Wunderground v.1.15,2013-04-23 05:00:00,
2013-04-23 01:05:00,55.1,48.0,30.02,ESE,121,3.0,13.0,77,0.00,,,0.00,Wunderground v.1.15,2013-04-23 05:05:00,
2013-04-23 01:10:00,55.0,47.9,30.02,ENE,65,4.0,13.0,77,0.00,,,0.00,Wunderground v.1.15,2013-04-23 05:10:00,
2013-04-23 01:15:00,55.0,47.9,30.01,NE,41,2.0,13.0,77,0.00,,,0.00,Wunderground v.1.15,2013-04-23 05:15:00,
2013-04-23 01:21:00,54.8,48.1,30.01,NE,48,1.0,13.0,78,0.00,,,0.00,Wunderground v.1.15,2013-04-23 05:21:00,
2013-04-23 01:26:00,54.8,48.1,30.01,ESE,112,1.0,13.0,78,0.00,,,0.00,Wunderground v.1.15,2013-04-23 05:26:00,
2013-04-23 01:31:00,54.7,48.0,30.01,NNE,23,0.0,13.0,78,0.00,,,0.00,Wunderground v.1.15,2013-04-23 05:31:00,
2013-04-23 01:36:00,54.7,48.0,30.01,SE,130,0.0,13.0,78,0.00,,,0.00,Wunderground v.1.15,2013-04-23 05:36:00,
2013-04-23 01:41:00,54.7,48.3,30.01,ENE,65,1.0,13.0,79,0.00,,,0.00,Wunderground v.1.15,2013-04-23 05:41:00,
2013-04-23 01:46:00,54.5,48.1,30.01,NE,37,2.0,13.0,79,0.00,,,0.00,Wunderground v.1.15,2013-04-23 05:46:00,
2013-04-23 01:51:00,54.5,48.1,30.01,East,83,1.0,13.0,79,0.00,,,0.00,Wunderground v.1.15,2013-04-23 05:51:00,
2013-04-23 01:56:00,54.4,48.0,30.01,NE,49,1.0,13.0,79,0.00,,,0.00,Wunderground v.1.15,2013-04-23 05:56:00,
2013-04-23 02:02:00,54.4,48.0,30.00,ESE,107,0.0,13.0,79,0.00,,,0.00,Wunderground v.1.15,2013-04-23 06:02:00,
2013-04-23 02:07:00,54.2,48.2,30.00,East,80,1.0,13.0,80,0.00,,,0.00,Wunderground v.1.15,2013-04-23 06:07:00,
2013-04-23 02:13:00,54.1,48.1,30.00,NW,323,2.0,13.0,80,0.00,,,0.00,Wunderground v.1.15,2013-04-23 06:13:00,
2013-04-23 02:18:00,53.9,47.9,30.00,NE,45,2.0,13.0,80,0.00,,,0.00,Wunderground v.1.15,2013-04-23 06:18:00,
2013-04-23 02:23:00,53.9,47.9,30.00,ENE,72,1.0,2.0,80,0.00,,,0.00,Wunderground v.1.15,2013-04-23 06:23:00,
2013-04-23 02:28:00,53.9,48.2,30.00,East,81,1.0,13.0,81,0.00,,,0.00,Wunderground v.1.15,2013-04-23 06:28:00,
2013-04-23 02:33:00,53.9,48.2,30.00,ESE,111,1.0,13.0,81,0.00,,,0.00,Wunderground v.1.15,2013-04-23 06:33:00,
2013-04-23 02:38:00,53.8,48.1,30.00,NE,50,2.0,13.0,81,0.00,,,0.00,Wunderground v.1.15,2013-04-23 06:38:00,
2013-04-23 02:43:00,53.6,48.2,30.00,NW,308,2.0,13.0,82,0.00,,,0.00,Wunderground v.1.15,2013-04-23 06:43:00,
2013-04-23 02:48:00,53.5,48.1,30.00,NNE,15,1.0,13.0,82,0.00,,,0.00,Wunderground v.1.15,2013-04-23 06:48:00,
2013-04-23 02:54:00,53.5,48.1,30.00,NNE,22,1.0,13.0,82,0.00,,,0.00,Wunderground v.1.15,2013-04-23 06:54:00,
2013-04-23 02:59:00,53.3,47.9,30.00,North,9,1.0,13.0,82,0.00,,,0.00,Wunderground v.1.15,2013-04-23 06:59:00,
2013-04-23 03:04:00,53.3,48.3,30.00,North,5,1.0,13.0,83,0.00,,,0.00,Wunderground v.1.15,2013-04-23 07:04:00,
2013-04-23 03:09:00,53.2,48.2,30.00,North,5,1.0,13.0,83,0.00,,,0.00,Wunderground v.1.15,2013-04-23 07:09:00,
2013-04-23 03:14:00,53.2,48.2,29.99,NE,38,1.0,13.0,83,0.00,,,0.00,Wunderground v.1.15,2013-04-23 07:14:00,
2013-04-23 03:20:00,53.2,48.2,29.99,ENE,61,1.0,13.0,83,0.00,,,0.00,Wunderground v.1.15,2013-04-23 07:20:00,
2013-04-23 03:25:00,53.1,48.1,29.99,NNE,13,1.0,13.0,83,0.00,,,0.00,Wunderground v.1.15,2013-04-23 07:25:00,
2013-04-23 03:30:00,53.1,48.4,29.99,NE,49,1.0,13.0,84,0.00,,,0.00,Wunderground v.1.15,2013-04-23 07:30:00,
2013-04-23 03:35:00,52.9,48.2,29.99,NNE,28,1.0,13.0,84,0.00,,,0.00,Wunderground v.1.15,2013-04-23 07:35:00,
2013-04-23 03:40:00,52.9,48.5,29.99,NNW,340,1.0,13.0,85,0.00,,,0.00,Wunderground v.1.15,2013-04-23 07:40:00,
2013-04-23 03:46:00,52.8,48.4,29.99,NNW,336,1.0,13.0,85,0.00,,,0.00,Wunderground v.1.15,2013-04-23 07:46:00,
2013-04-23 03:51:00,52.6,48.5,29.99,North,9,1.0,13.0,86,0.00,,,0.00,Wunderground v.1.15,2013-04-23 07:51:00,
2013-04-23 03:56:00,52.6,48.5,29.99,NNW,347,1.0,13.0,86,0.00,,,0.00,Wunderground v.1.15,2013-04-23 07:56:00,
2013-04-23 04:01:00,52.5,48.4,29.99,North,360,2.0,13.0,86,0.00,,,0.00,Wunderground v.1.15,2013-04-23 08:01:00,
2013-04-23 04:06:00,52.3,48.5,29.99,NNW,333,2.0,13.0,87,0.00,,,0.00,Wunderground v.1.15,2013-04-23 08:06:00,
2013-04-23 04:12:00,52.3,48.5,29.99,North,9,1.0,13.0,87,0.00,,,0.00,Wunderground v.1.15,2013-04-23 08:12:00,
2013-04-23 04:17:00,52.3,48.5,29.99,NE,38,1.0,13.0,87,0.00,,,0.00,Wunderground v.1.15,2013-04-23 08:17:00,
2013-04-23 04:22:00,52.3,48.5,29.99,NE,43,1.0,13.0,87,0.00,,,0.00,Wunderground v.1.15,2013-04-23 08:22:00,
2013-04-23 04:27:00,52.2,48.4,29.99,NNE,30,2.0,13.0,87,0.00,,,0.00,Wunderground v.1.15,2013-04-23 08:27:00,
2013-04-23 04:32:00,52.2,48.4,30.00,NNE,15,2.0,2.0,87,0.00,,,0.00,Wunderground v.1.15,2013-04-23 08:32:00,
2013-04-23 04:38:00,51.9,48.5,30.00,NNE,29,2.0,13.0,88,0.00,,,0.00,Wunderground v.1.15,2013-04-23 08:38:00,
2013-04-23 04:43:00,51.9,48.8,30.00,North,9,1.0,13.0,89,0.00,,,0.00,Wunderground v.1.15,2013-04-23 08:43:00,
2013-04-23 04:48:00,51.7,48.6,29.99,North,5,1.0,13.0,89,0.00,,,0.00,Wunderground v.1.15,2013-04-23 08:48:00,
2013-04-23 04:53:00,51.6,48.8,29.99,NW,323,1.0,13.0,90,0.00,,,0.00,Wunderground v.1.15,2013-04-23 08:53:00,
2013-04-23 04:58:00,51.4,48.6,29.99,NE,44,1.0,13.0,90,0.00,,,0.00,Wunderground v.1.15,2013-04-23 08:58:00,
2013-04-23 05:04:00,51.4,48.9,29.99,NE,43,0.0,13.0,91,0.00,,,0.00,Wunderground v.1.15,2013-04-23 09:04:00,
2013-04-23 05:09:00,51.3,48.8,29.99,North,355,0.0,13.0,91,0.00,,,0.00,Wunderground v.1.15,2013-04-23 09:09:00,
2013-04-23 05:14:00,51.3,48.8,29.99,NNW,340,1.0,13.0,91,0.00,,,0.00,Wunderground v.1.15,2013-04-23 09:14:00,
2013-04-23 05:19:00,51.1,48.9,29.99,NNW,347,1.0,13.0,92,0.00,,,0.00,Wunderground v.1.15,2013-04-23 09:19:00,
2013-04-23 05:24:00,51.1,48.9,29.99,ENE,77,0.0,13.0,92,0.00,,,0.00,Wunderground v.1.15,2013-04-23 09:24:00,
2013-04-23 05:30:00,51.1,48.9,29.99,North,9,1.0,13.0,92,0.00,,,0.00,Wunderground v.1.15,2013-04-23 09:30:00,
2013-04-23 05:35:00,51.1,48.9,29.99,East,86,1.0,13.0,92,0.00,,,0.00,Wunderground v.1.15,2013-04-23 09:35:00,
2013-04-23 05:40:00,51.1,48.9,29.99,North,355,1.0,13.0,92,0.00,,,0.00,Wunderground v.1.15,2013-04-23 09:40:00,
2013-04-23 05:45:00,51.0,48.8,29.99,NE,36,1.0,13.0,92,0.00,,,0.00,Wunderground v.1.15,2013-04-23 09:45:00,
2013-04-23 05:50:00,51.0,48.8,29.99,NE,36,0.0,13.0,92,0.00,,,0.00,Wunderground v.1.15,2013-04-23 09:50:00,
2013-04-23 05:56:00,51.1,48.9,29.99,NW,313,0.0,13.0,92,0.00,,,0.00,Wunderground v.1.15,2013-04-23 09:56:00,
2013-04-23 06:01:00,51.0,48.8,29.99,NNE,26,1.0,13.0,92,0.00,,,0.00,Wunderground v.1.15,2013-04-23 10:01:00,
2013-04-23 06:06:00,51.0,48.8,29.99,NW,321,1.0,13.0,92,0.00,,,0.00,Wunderground v.1.15,2013-04-23 10:06:00,
2013-04-23 06:11:00,51.0,48.5,29.99,NNE,15,1.0,13.0,91,0.00,,,0.00,Wunderground v.1.15,2013-04-23 10:11:00,
2013-04-23 06:16:00,51.0,48.5,30.00,NE,40,2.0,13.0,91,0.00,,,0.00,Wunderground v.1.15,2013-04-23 10:16:00,
2013-04-23 06:22:00,51.1,48.3,30.00,NNE,21,3.0,3.0,90,0.00,,,0.00,Wunderground v.1.15,2013-04-23 10:22:00,
2013-04-23 06:27:00,51.1,48.3,30.00,East,79,2.0,13.0,90,0.00,,,0.00,Wunderground v.1.15,2013-04-23 10:27:00,
2013-04-23 06:32:00,51.1,48.3,30.00,ENE,64,1.0,1.0,90,0.00,,,0.00,Wunderground v.1.15,2013-04-23 10:32:00,
2013-04-23 06:37:00,51.1,48.3,30.00,NW,319,1.0,13.0,90,0.00,,,0.00,Wunderground v.1.15,2013-04-23 10:37:00,
2013-04-23 06:42:00,51.1,48.3,30.00,ENE,69,1.0,1.0,90,0.00,,,0.00,Wunderground v.1.15,2013-04-23 10:42:00,
2013-04-23 06:48:00,51.1,48.0,30.00,NE,39,1.0,13.0,89,0.00,,,0.00,Wunderground v.1.15,2013-04-23 10:48:00,
2013-04-23 06:53:00,51.1,48.0,30.00,NNE,30,1.0,13.0,89,0.00,,,0.00,Wunderground v.1.15,2013-04-23 10:53:00,
2013-04-23 06:58:00,51.1,48.0,30.00,NNE,13,1.0,13.0,89,0.00,,,0.00,Wunderground v.1.15,2013-04-23 10:58:00,
2013-04-23 07:03:00,51.1,48.0,30.01,ENE,58,1.0,13.0,89,0.00,,,0.00,Wunderground v.1.15,2013-04-23 11:03:00,
2013-04-23 07:08:00,51.1,48.0,30.01,North,5,1.0,13.0,89,0.00,,,0.00,Wunderground v.1.15,2013-04-23 11:08:00,
2013-04-23 07:14:00,51.1,48.0,30.01,NE,42,1.0,13.0,89,0.00,,,0.00,Wunderground v.1.15,2013-04-23 11:14:00,
2013-04-23 07:19:00,51.1,48.0,30.01,NNE,26,1.0,13.0,89,0.00,,,0.00,Wunderground v.1.15,2013-04-23 11:19:00,
2013-04-23 07:24:00,51.1,48.0,30.01,North,5,1.0,13.0,89,0.00,,,0.00,Wunderground v.1.15,2013-04-23 11:24:00,
2013-04-23 07:29:00,51.1,48.0,30.02,ENE,61,1.0,13.0,89,0.00,,,0.00,Wunderground v.1.15,2013-04-23 11:29:00,
2013-04-23 07:34:00,51.1,48.0,30.02,ENE,63,1.0,13.0,89,0.00,,,0.00,Wunderground v.1.15,2013-04-23 11:34:00,
2013-04-23 07:39:00,51.1,48.0,30.02,NNE,32,1.0,13.0,89,0.00,,,0.00,Wunderground v.1.15,2013-04-23 11:39:00,
2013-04-23 07:44:00,51.1,48.0,30.02,NNE,21,1.0,13.0,89,0.00,,,0.00,Wunderground v.1.15,2013-04-23 11:44:00,
2013-04-23 07:50:00,51.3,48.2,30.02,ENE,57,1.0,13.0,89,0.00,,,0.00,Wunderground v.1.15,2013-04-23 11:50:00,
2013-04-23 07:55:00,51.3,48.2,30.02,NNE,32,0.0,13.0,89,0.00,,,0.00,Wunderground v.1.15,2013-04-23 11:55:00,
2013-04-23 08:00:00,51.4,48.3,30.03,ENE,74,2.0,13.0,89,0.00,,,0.00,Wunderground v.1.15,2013-04-23 12:00:00,
2013-04-23 08:05:00,51.4,48.0,30.03,WNW,292,3.0,13.0,88,0.00,,,0.00,Wunderground v.1.15,2013-04-23 12:05:00,
2013-04-23 08:10:00,51.6,48.2,30.03,NNE,27,2.0,13.0,88,0.00,,,0.00,Wunderground v.1.15,2013-04-23 12:10:00,
2013-04-23 08:15:00,51.6,48.2,30.03,North,360,2.0,13.0,88,0.00,,,0.00,Wunderground v.1.15,2013-04-23 12:15:00,
2013-04-23 08:21:00,51.6,48.2,30.03,SE,128,2.0,13.0,88,0.00,,,0.00,Wunderground v.1.15,2013-04-23 12:21:00,
2013-04-23 08:26:00,51.6,48.2,30.03,NNW,339,2.0,13.0,88,0.00,,,0.00,Wunderground v.1.15,2013-04-23 12:26:00,
2013-04-23 08:31:00,51.7,48.3,30.03,ESE,112,2.0,13.0,88,0.00,,,0.00,Wunderground v.1.15,2013-04-23 12:31:00,
2013-04-23 08:37:00,51.7,48.3,30.03,North,355,2.0,13.0,88,0.00,,,0.00,Wunderground v.1.15,2013-04-23 12:37:00,
2013-04-23 08:42:00,51.7,48.3,30.03,North,360,2.0,2.0,88,0.00,,,0.00,Wunderground v.1.15,2013-04-23 12:42:00,
2013-04-23 08:47:00,51.7,48.3,30.04,NNE,20,2.0,13.0,88,0.00,,,0.00,Wunderground v.1.15,2013-04-23 12:47:00,
2013-04-23 08:52:00,51.9,48.8,30.04,NE,47,1.0,13.0,89,0.00,,,0.00,Wunderground v.1.15,2013-04-23 12:52:00,
2013-04-23 08:58:00,51.9,48.5,30.04,NNE,31,1.0,13.0,88,0.00,,,0.00,Wunderground v.1.15,2013-04-23 12:58:00,
2013-04-23 09:03:00,52.0,48.6,30.04,NNE,32,1.0,13.0,88,0.00,,,0.00,Wunderground v.1.15,2013-04-23 13:03:00,
2013-04-23 09:08:00,52.0,48.6,30.04,NE,51,1.0,13.0,88,0.00,,,0.00,Wunderground v.1.15,2013-04-23 13:08:00,
2013-04-23 09:13:00,52.2,48.8,30.04,NE,46,1.0,13.0,88,0.00,,,0.00,Wunderground v.1.15,2013-04-23 13:13:00,
2013-04-23 09:19:00,52.5,49.0,30.04,NE,49,1.0,13.0,88,0.00,,,0.00,Wunderground v.1.15,2013-04-23 13:19:00,
2013-04-23 09:24:00,52.6,49.1,30.04,East,84,1.0,13.0,88,0.00,,,0.00,Wunderground v.1.15,2013-04-23 13:24:00,
2013-04-23 09:29:00,52.8,49.3,30.04,NNE,28,1.0,13.0,88,0.00,,,0.00,Wunderground v.1.15,2013-04-23 13:29:00,
2013-04-23 09:34:00,52.9,49.1,30.04,NE,53,2.0,13.0,87,0.00,,,0.00,Wunderground v.1.15,2013-04-23 13:34:00,
2013-04-23 09:39:00,53.1,49.0,30.04,East,80,2.0,13.0,86,0.00,,,0.00,Wunderground v.1.15,2013-04-23 13:39:00,
2013-04-23 09:44:00,53.2,49.1,30.04,NE,42,2.0,13.0,86,0.00,,,0.00,Wunderground v.1.15,2013-04-23 13:44:00,
2013-04-23 09:49:00,53.3,49.2,30.04,ENE,72,2.0,13.0,86,0.00,,,0.00,Wunderground v.1.15,2013-04-23 13:49:00,
2013-04-23 09:54:00,53.8,49.7,30.04,NE,55,1.0,13.0,86,0.00,,,0.00,Wunderground v.1.15,2013-04-23 13:54:00,
2013-04-23 09:59:00,54.1,49.7,30.04,NE,42,1.0,13.0,85,0.00,,,0.00,Wunderground v.1.15,2013-04-23 13:59:00,
2013-04-23 10:05:00,54.4,49.7,30.04,ENE,62,1.0,13.0,84,0.00,,,0.00,Wunderground v.1.15,2013-04-23 14:05:00,
2013-04-23 10:10:00,54.4,49.3,30.04,ESE,107,2.0,13.0,83,0.00,,,0.00,Wunderground v.1.15,2013-04-23 14:10:00,
2013-04-23 10:16:00,54.5,49.8,30.03,ESE,103,2.0,13.0,84,0.00,,,0.00,Wunderground v.1.15,2013-04-23 14:16:00,
2013-04-23 10:21:00,55.0,49.9,30.03,NNW,330,1.0,13.0,83,0.00,,,0.00,Wunderground v.1.15,2013-04-23 14:21:00,
2013-04-23 10:26:00,55.0,49.6,30.03,NE,41,1.0,13.0,82,0.00,,,0.00,Wunderground v.1.15,2013-04-23 14:26:00,
2013-04-23 10:31:00,55.0,49.6,30.04,NNE,30,2.0,13.0,82,0.00,,,0.00,Wunderground v.1.15,2013-04-23 14:31:00,
2013-04-23 10:36:00,55.0,49.6,30.04,WNW,299,2.0,13.0,82,0.00,,,0.00,Wunderground v.1.15,2013-04-23 14:36:00,
2013-04-23 10:41:00,55.0,49.6,30.04,North,5,2.0,13.0,82,0.00,,,0.00,Wunderground v.1.15,2013-04-23 14:41:00,
2013-04-23 10:46:00,55.3,49.9,30.05,ENE,78,2.0,13.0,82,0.00,,,0.00,Wunderground v.1.15,2013-04-23 14:46:00,
2013-04-23 10:51:00,55.6,49.9,30.05,NNE,18,2.0,13.0,81,0.00,,,0.00,Wunderground v.1.15,2013-04-23 14:51:00,
2013-04-23 10:57:00,55.6,49.9,30.05,NE,38,3.0,13.0,81,0.00,,,0.00,Wunderground v.1.15,2013-04-23 14:57:00,
2013-04-23 11:02:00,55.9,50.2,30.05,NNW,331,3.0,3.0,81,0.00,,,0.00,Wunderground v.1.15,2013-04-23 15:02:00,
2013-04-23 11:07:00,55.9,49.8,30.05,ENE,61,2.0,13.0,80,0.00,,,0.00,Wunderground v.1.15,2013-04-23 15:07:00,
2013-04-23 11:13:00,56.0,49.9,30.05,ENE,74,3.0,13.0,80,0.00,,,0.00,Wunderground v.1.15,2013-04-23 15:13:00,
2013-04-23 11:18:00,56.2,49.8,30.06,ENE,70,3.0,13.0,79,0.00,,,0.00,Wunderground v.1.15,2013-04-23 15:18:00,
2013-04-23 11:23:00,56.6,50.2,30.06,ENE,63,3.0,13.0,79,0.00,,,0.00,Wunderground v.1.15,2013-04-23 15:23:00,
2013-04-23 11:28:00,56.9,50.5,30.06,East,88,2.0,13.0,79,0.00,,,0.00,Wunderground v.1.15,2013-04-23 15:28:00,
2013-04-23 11:34:00,57.3,50.8,30.06,NNE,21,1.0,13.0,79,0.00,,,0.00,Wunderground v.1.15,2013-04-23 15:34:00,
2013-04-23 11:39:00,57.6,51.1,30.06,NNE,22,1.0,13.0,79,0.00,,,0.00,Wunderground v.1.15,2013-04-23 15:39:00,
2013-04-23 11:44:00,57.6,50.4,30.05,NNE,14,1.0,13.0,77,0.00,,,0.00,Wunderground v.1.15,2013-04-23 15:44:00,
2013-04-23 11:49:00,58.0,50.8,30.05,NE,34,2.0,13.0,77,0.00,,,0.00,Wunderground v.1.15,2013-04-23 15:49:00,
2013-04-23 11:54:00,58.3,51.1,30.05,ESE,107,2.0,13.0,77,0.00,,,0.00,Wunderground v.1.15,2013-04-23 15:54:00,
2013-04-23 11:59:00,58.3,50.8,30.05,North,355,1.0,13.0,76,0.00,,,0.00,Wunderground v.1.15,2013-04-23 15:59:00,
2013-04-23 12:04:00,58.6,50.3,30.05,NNE,15,1.0,13.0,74,0.00,,,0.00,Wunderground v.1.15,2013-04-23 16:04:00,
2013-04-23 12:09:00,58.7,51.2,30.05,NNE,26,1.0,13.0,76,0.00,,,0.00,Wunderground v.1.15,2013-04-23 16:09:00,
2013-04-23 12:14:00,58.9,51.3,30.05,East,80,1.0,13.0,76,0.00,,,0.00,Wunderground v.1.15,2013-04-23 16:14:00,
2013-04-23 12:19:00,58.9,50.6,30.05,NNE,28,1.0,13.0,74,0.00,,,0.00,Wunderground v.1.15,2013-04-23 16:19:00,
2013-04-23 12:24:00,59.0,51.1,30.05,NE,43,2.0,13.0,75,0.00,,,0.00,Wunderground v.1.15,2013-04-23 16:24:00,
2013-04-23 12:29:00,58.9,51.0,30.06,NNW,328,2.0,13.0,75,0.00,,,0.00,Wunderground v.1.15,2013-04-23 16:29:00,
2013-04-23 12:35:00,59.0,51.1,30.06,North,355,2.0,13.0,75,0.00,,,0.00,Wunderground v.1.15,2013-04-23 16:35:00,
2013-04-23 12:40:00,59.2,51.3,30.06,NNE,24,2.0,13.0,75,0.00,,,0.00,Wunderground v.1.15,2013-04-23 16:40:00,
2013-04-23 12:45:00,59.6,51.7,30.06,NE,46,2.0,13.0,75,0.00,,,0.00,Wunderground v.1.15,2013-04-23 16:45:00,
2013-04-23 12:50:00,60.4,51.7,30.06,ENE,64,2.0,13.0,73,0.00,,,0.00,Wunderground v.1.15,2013-04-23 16:50:00,
2013-04-23 12:56:00,60.5,51.8,30.06,North,5,1.0,13.0,73,0.00,,,0.00,Wunderground v.1.15,2013-04-23 16:56:00,
2013-04-23 13:01:00,61.0,52.3,30.04,East,83,2.0,13.0,73,0.00,,,0.00,Wunderground v.1.15,2013-04-23 17:01:00,
2013-04-23 13:06:00,61.8,52.7,30.04,ENE,64,2.0,13.0,72,0.00,,,0.00,Wunderground v.1.15,2013-04-23 17:06:00,
2013-04-23 13:11:00,62.6,53.1,30.04,North,360,2.0,13.0,71,0.00,,,0.00,Wunderground v.1.15,2013-04-23 17:11:00,
2013-04-23 13:16:00,62.3,52.4,30.04,NW,318,2.0,13.0,70,0.00,,,0.00,Wunderground v.1.15,2013-04-23 17:16:00,
2013-04-23 13:21:00,62.4,52.9,30.04,East,82,1.0,13.0,71,0.00,,,0.00,Wunderground v.1.15,2013-04-23 17:21:00,
2013-04-23 13:27:00,62.9,52.6,30.04,ENE,67,1.0,13.0,69,0.00,,,0.00,Wunderground v.1.15,2013-04-23 17:27:00,
2013-04-23 13:32:00,63.5,53.5,30.04,North,11,1.0,13.0,70,0.00,,,0.00,Wunderground v.1.15,2013-04-23 17:32:00,
2013-04-23 13:37:00,64.3,53.9,30.04,NE,43,1.0,13.0,69,0.00,,,0.00,Wunderground v.1.15,2013-04-23 17:37:00,
2013-04-23 13:42:00,64.7,53.5,30.04,WNW,296,1.0,13.0,67,0.00,,,0.00,Wunderground v.1.15,2013-04-23 17:42:00,
2013-04-23 13:47:00,65.2,53.6,30.02,East,79,1.0,13.0,66,0.00,,,0.00,Wunderground v.1.15,2013-04-23 17:47:00,
2013-04-23 13:53:00,65.5,53.8,30.02,NNE,15,2.0,13.0,66,0.00,,,0.00,Wunderground v.1.15,2013-04-23 17:53:00,
2013-04-23 13:58:00,65.6,54.3,30.02,North,5,1.0,13.0,67,0.00,,,0.00,Wunderground v.1.15,2013-04-23 17:58:00,
2013-04-23 14:03:00,66.1,54.0,30.02,NE,37,1.0,13.0,65,0.00,,,0.00,Wunderground v.1.15,2013-04-23 18:03:00,
2013-04-23 14:08:00,66.4,54.3,30.02,NE,53,1.0,13.0,65,0.00,,,0.00,Wunderground v.1.15,2013-04-23 18:08:00,
2013-04-23 14:13:00,66.6,54.0,30.02,NNW,338,1.0,13.0,64,0.00,,,0.00,Wunderground v.1.15,2013-04-23 18:13:00,
2013-04-23 14:19:00,66.9,54.3,30.01,ESE,108,2.0,13.0,64,0.00,,,0.00,Wunderground v.1.15,2013-04-23 18:19:00,
2013-04-23 14:24:00,67.6,54.6,30.01,NE,49,2.0,13.0,63,0.00,,,0.00,Wunderground v.1.15,2013-04-23 18:24:00,
2013-04-23 14:30:00,68.3,54.8,30.00,ENE,60,2.0,13.0,62,0.00,,,0.00,Wunderground v.1.15,2013-04-23 18:30:00,
2013-04-23 14:36:00,67.9,54.0,30.00,ENE,59,1.0,3.0,61,0.00,,,0.00,Wunderground v.1.15,2013-04-23 18:36:00,
2013-04-23 14:41:00,67.6,53.7,30.00,NE,38,1.0,4.0,61,0.00,,,0.00,Wunderground v.1.15,2013-04-23 18:41:00,
2013-04-23 14:47:00,67.1,54.5,30.00,ENE,76,1.0,2.0,64,0.00,,,0.00,Wunderground v.1.15,2013-04-23 18:47:00,
2013-04-23 14:53:00,67.3,53.8,30.00,East,87,1.0,2.0,62,0.00,,,0.00,Wunderground v.1.15,2013-04-23 18:53:00,
2013-04-23 14:59:00,67.6,53.7,30.00,NNE,32,1.0,3.0,61,0.00,,,0.00,Wunderground v.1.15,2013-04-23 18:59:00,
2013-04-23 15:05:00,67.4,54.4,30.00,ENE,58,1.0,9.0,63,0.00,,,0.00,Wunderground v.1.15,2013-04-23 19:05:00,
2013-04-23 15:10:00,67.3,53.8,30.00,ENE,60,1.0,9.0,62,0.00,,,0.00,Wunderground v.1.15,2013-04-23 19:10:00,
2013-04-23 15:16:00,67.1,54.1,30.00,ENE,69,1.0,9.0,63,0.00,,,0.00,Wunderground v.1.15,2013-04-23 19:16:00,
2013-04-23 15:22:00,66.9,53.9,30.00,NE,35,2.0,9.0,63,0.00,,,0.00,Wunderground v.1.15,2013-04-23 19:22:00,
2013-04-23 15:28:00,66.4,54.3,30.00,NE,40,2.0,9.0,65,0.00,,,0.00,Wunderground v.1.15,2013-04-23 19:28:00,
2013-04-23 15:33:00,66.1,54.0,30.00,NE,51,1.0,9.0,65,0.00,,,0.00,Wunderground v.1.15,2013-04-23 19:33:00,
2013-04-23 15:38:00,66.0,54.3,30.00,NE,51,1.0,9.0,66,0.00,,,0.00,Wunderground v.1.15,2013-04-23 19:38:00,
2013-04-23 15:44:00,66.0,53.9,30.00,NE,51,0.0,9.0,65,0.00,,,0.00,Wunderground v.1.15,2013-04-23 19:44:00,
2013-04-23 15:50:00,66.3,54.2,30.00,NE,51,0.0,9.0,65,0.00,,,0.00,Wunderground v.1.15,2013-04-23 19:50:00,
2013-04-23 15:56:00,66.4,53.8,30.00,NE,51,0.0,9.0,64,0.00,,,0.00,Wunderground v.1.15,2013-04-23 19:56:00,
2013-04-23 16:02:00,66.6,54.5,30.00,NE,45,1.0,9.0,65,0.00,,,0.00,Wunderground v.1.15,2013-04-23 20:02:00,
2013-04-23 16:07:00,66.6,54.5,30.00,NE,43,1.0,9.0,65,0.00,,,0.00,Wunderground v.1.15,2013-04-23 20:07:00,
2013-04-23 16:13:00,66.4,53.8,30.00,NNE,25,0.0,9.0,64,0.00,,,0.00,Wunderground v.1.15,2013-04-23 20:13:00,
2013-04-23 16:19:00,66.4,53.8,30.00,NNE,25,1.0,9.0,64,0.00,,,0.00,Wunderground v.1.15,2013-04-23 20:19:00,
2013-04-23 16:25:00,66.3,53.8,30.00,NNE,25,0.0,9.0,64,0.00,,,0.00,Wunderground v.1.15,2013-04-23 20:25:00,
2013-04-23 16:31:00,66.0,53.9,30.00,NNE,25,0.0,9.0,65,0.00,,,0.00,Wunderground v.1.15,2013-04-23 20:31:00,
2013-04-23 16:36:00,66.3,54.2,30.00,NE,50,0.0,9.0,65,0.00,,,0.00,Wunderground v.1.15,2013-04-23 20:36:00,
2013-04-23 16:42:00,66.6,54.5,30.00,NE,53,1.0,1.0,65,0.00,,,0.00,Wunderground v.1.15,2013-04-23 20:42:00,
2013-04-23 16:48:00,66.8,54.7,29.99,SE,146,1.0,9.0,65,0.00,,,0.00,Wunderground v.1.15,2013-04-23 20:48:00,
2013-04-23 16:54:00,66.4,54.7,29.99,SE,146,1.0,9.0,66,0.00,,,0.00,Wunderground v.1.15,2013-04-23 20:54:00,
2013-04-23 17:00:00,66.4,54.7,29.99,ESE,105,1.0,9.0,66,0.00,,,0.00,Wunderground v.1.15,2013-04-23 21:00:00,
2013-04-23 17:06:00,66.9,55.2,29.99,ESE,120,0.0,9.0,66,0.00,,,0.00,Wunderground v.1.15,2013-04-23 21:06:00,
2013-04-23 17:12:00,67.1,54.9,29.99,SSE,150,1.0,9.0,65,0.00,,,0.00,Wunderground v.1.15,2013-04-23 21:12:00,
2013-04-23 17:18:00,67.3,55.5,29.99,SE,133,1.0,9.0,66,0.00,,,0.00,Wunderground v.1.15,2013-04-23 21:18:00,
2013-04-23 17:24:00,66.9,54.7,29.99,SSE,147,1.0,9.0,65,0.00,,,0.00,Wunderground v.1.15,2013-04-23 21:24:00,
2013-04-23 17:30:00,66.8,54.7,29.99,SE,145,2.0,9.0,65,0.00,,,0.00,Wunderground v.1.15,2013-04-23 21:30:00,
2013-04-23 17:35:00,66.8,54.7,29.99,SE,140,1.0,9.0,65,0.00,,,0.00,Wunderground v.1.15,2013-04-23 21:35:00,
2013-04-23 17:41:00,66.4,54.7,29.99,ESE,103,1.0,9.0,66,0.00,,,0.00,Wunderground v.1.15,2013-04-23 21:41:00,
2013-04-23 17:47:00,66.4,54.7,29.99,ESE,104,0.0,9.0,66,0.00,,,0.00,Wunderground v.1.15,2013-04-23 21:47:00,
2013-04-23 17:52:00,66.4,54.3,29.99,ESE,121,0.0,9.0,65,0.00,,,0.00,Wunderground v.1.15,2013-04-23 21:52:00,
2013-04-23 17:58:00,66.0,53.9,29.99,SE,128,0.0,9.0,65,0.00,,,0.00,Wunderground v.1.15,2013-04-23 21:58:00,
2013-04-23 18:04:00,65.6,53.9,29.99,SE,128,0.0,9.0,66,0.00,,,0.00,Wunderground v.1.15,2013-04-23 22:04:00,
2013-04-23 18:10:00,65.3,54.5,29.99,SE,128,0.0,9.0,68,0.00,,,0.00,Wunderground v.1.15,2013-04-23 22:10:00,
2013-04-23 18:16:00,65.5,54.2,30.00,SSW,209,0.0,9.0,67,0.00,,,0.00,Wunderground v.1.15,2013-04-23 22:16:00,
2013-04-23 18:22:00,65.2,54.0,30.00,SW,216,1.0,9.0,67,0.00,,,0.00,Wunderground v.1.15,2013-04-23 22:22:00,
2013-04-23 18:28:00,64.8,54.0,30.00,SW,217,1.0,9.0,68,0.00,,,0.00,Wunderground v.1.15,2013-04-23 22:28:00,
2013-04-23 18:34:00,64.8,54.4,29.99,SW,217,1.0,9.0,69,0.00,,,0.00,Wunderground v.1.15,2013-04-23 22:34:00,
2013-04-23 18:40:00,64.8,54.0,29.99,SW,217,0.0,9.0,68,0.00,,,0.00,Wunderground v.1.15,2013-04-23 22:40:00,
2013-04-23 18:46:00,64.8,54.0,29.98,SW,217,0.0,9.0,68,0.00,,,0.00,Wunderground v.1.15,2013-04-23 22:46:00,
2013-04-23 18:52:00,64.5,54.1,29.98,SW,217,0.0,9.0,69,0.00,,,0.00,Wunderground v.1.15,2013-04-23 22:52:00,
2013-04-23 18:57:00,64.2,54.2,29.98,SW,217,0.0,9.0,70,0.00,,,0.00,Wunderground v.1.15,2013-04-23 22:57:00,
2013-04-23 19:03:00,63.7,54.1,29.99,SW,217,0.0,9.0,71,0.00,,,0.00,Wunderground v.1.15,2013-04-23 23:03:00,
2013-04-23 19:08:00,63.5,54.3,29.99,SW,217,0.0,9.0,72,0.00,,,0.00,Wunderground v.1.15,2013-04-23 23:08:00,
2013-04-23 19:14:00,63.2,54.0,29.99,SE,142,0.0,9.0,72,0.00,,,0.00,Wunderground v.1.15,2013-04-23 23:14:00,
2013-04-23 19:20:00,62.7,53.9,29.99,SE,142,0.0,9.0,73,0.00,,,0.00,Wunderground v.1.15,2013-04-23 23:20:00,
2013-04-23 19:26:00,62.4,54.0,29.99,SE,142,0.0,9.0,74,0.00,,,0.00,Wunderground v.1.15,2013-04-23 23:26:00,
2013-04-23 19:32:00,62.0,54.0,30.00,SE,142,0.0,9.0,75,0.00,,,0.00,Wunderground v.1.15,2013-04-23 23:32:00,
2013-04-23 19:38:00,61.6,54.0,30.00,SE,142,0.0,9.0,76,0.00,,,0.00,Wunderground v.1.15,2013-04-23 23:38:00,
2013-04-23 19:44:00,61.3,54.0,30.00,SE,142,0.0,9.0,77,0.00,,,0.00,Wunderground v.1.15,2013-04-23 23:44:00,
2013-04-23 19:50:00,60.9,54.0,30.00,SE,142,0.0,9.0,78,0.00,,,0.00,Wunderground v.1.15,2013-04-23 23:50:00,
2013-04-23 19:56:00,60.4,53.5,30.00,SE,142,0.0,9.0,78,0.00,,,0.00,Wunderground v.1.15,2013-04-23 23:56:00,
2013-04-23 20:02:00,59.9,53.4,30.00,SE,142,0.0,9.0,79,0.00,,,0.00,Wunderground v.1.15,2013-04-24 00:02:00,
2013-04-23 20:07:00,59.6,53.4,30.00,SE,142,0.0,9.0,80,0.00,,,0.00,Wunderground v.1.15,2013-04-24 00:07:00,
2013-04-23 20:13:00,59.2,53.4,30.00,SE,142,0.0,9.0,81,0.00,,,0.00,Wunderground v.1.15,2013-04-24 00:13:00,
2013-04-23 20:19:00,58.9,53.4,30.00,SE,142,0.0,9.0,82,0.00,,,0.00,Wunderground v.1.15,2013-04-24 00:19:00,
2013-04-23 20:24:00,58.6,53.1,30.00,SE,142,0.0,9.0,82,0.00,,,0.00,Wunderground v.1.15,2013-04-24 00:24:00,
2013-04-23 20:30:00,58.3,53.2,30.00,SE,142,0.0,9.0,83,0.00,,,0.00,Wunderground v.1.15,2013-04-24 00:30:00,
2013-04-23 20:36:00,58.0,53.2,30.00,SE,142,0.0,9.0,84,0.00,,,0.00,Wunderground v.1.15,2013-04-24 00:36:00,
2013-04-23 20:42:00,57.6,53.1,30.00,SE,142,0.0,9.0,85,0.00,,,0.00,Wunderground v.1.15,2013-04-24 00:42:00,
2013-04-23 20:48:00,57.3,52.8,30.00,SE,142,0.0,9.0,85,0.00,,,0.00,Wunderground v.1.15,2013-04-24 00:48:00,
2013-04-23 20:54:00,57.2,52.7,30.00,SE,142,0.0,9.0,85,0.00,,,0.00,Wunderground v.1.15,2013-04-24 00:54:00,
2013-04-23 21:00:00,57.0,52.9,30.01,SE,142,0.0,9.0,86,0.00,,,0.00,Wunderground v.1.15,2013-04-24 01:00:00,
2013-04-23 21:05:00,56.9,52.8,30.01,SE,142,0.0,9.0,86,0.00,,,0.00,Wunderground v.1.15,2013-04-24 01:05:00,
2013-04-23 21:10:00,56.7,52.6,30.01,SE,142,0.0,9.0,86,0.00,,,0.00,Wunderground v.1.15,2013-04-24 01:10:00,
2013-04-23 21:16:00,56.6,52.5,30.01,SE,142,0.0,9.0,86,0.00,,,0.00,Wunderground v.1.15,2013-04-24 01:16:00,
2013-04-23 21:22:00,56.3,52.5,30.01,SE,142,0.0,9.0,87,0.00,,,0.00,Wunderground v.1.15,2013-04-24 01:22:00,
2013-04-23 21:28:00,56.0,52.2,30.01,SE,142,0.0,9.0,87,0.00,,,0.00,Wunderground v.1.15,2013-04-24 01:28:00,
2013-04-23 21:34:00,55.9,52.4,30.01,SE,142,0.0,9.0,88,0.00,,,0.00,Wunderground v.1.15,2013-04-24 01:34:00,
2013-04-23 21:40:00,55.7,52.2,30.01,SE,142,0.0,9.0,88,0.00,,,0.00,Wunderground v.1.15,2013-04-24 01:40:00,
2013-04-23 21:46:00,55.3,51.8,30.03,SE,142,0.0,9.0,88,0.00,,,0.00,Wunderground v.1.15,2013-04-24 01:46:00,
2013-04-23 21:52:00,55.1,51.9,30.03,SE,142,0.0,9.0,89,0.00,,,0.00,Wunderground v.1.15,2013-04-24 01:52:00,
2013-04-23 21:58:00,55.0,51.8,30.03,SE,142,0.0,9.0,89,0.00,,,0.00,Wunderground v.1.15,2013-04-24 01:58:00,
2013-04-23 22:04:00,54.8,51.6,30.03,SE,142,0.0,9.0,89,0.00,,,0.00,Wunderground v.1.15,2013-04-24 02:04:00,
2013-04-23 22:10:00,54.7,51.8,30.03,SE,142,0.0,9.0,90,0.00,,,0.00,Wunderground v.1.15,2013-04-24 02:10:00,
2013-04-23 22:16:00,54.5,51.9,30.03,SE,142,0.0,9.0,91,0.00,,,0.00,Wunderground v.1.15,2013-04-24 02:16:00,
2013-04-23 22:22:00,54.4,51.8,30.03,SE,142,0.0,9.0,91,0.00,,,0.00,Wunderground v.1.15,2013-04-24 02:22:00,
2013-04-23 22:28:00,54.2,51.6,30.03,SE,142,0.0,9.0,91,0.00,,,0.00,Wunderground v.1.15,2013-04-24 02:28:00,
2013-04-23 22:34:00,54.2,51.9,30.03,SE,142,0.0,9.0,92,0.00,,,0.00,Wunderground v.1.15,2013-04-24 02:34:00,
2013-04-23 22:40:00,54.1,51.8,30.03,SE,142,0.0,9.0,92,0.00,,,0.00,Wunderground v.1.15,2013-04-24 02:40:00,
2013-04-23 22:46:00,53.9,51.6,30.03,SE,142,0.0,9.0,92,0.00,,,0.00,Wunderground v.1.15,2013-04-24 02:46:00,
2013-04-23 22:54:00,53.8,51.5,30.03,SE,142,0.0,9.0,92,0.00,,,0.00,Wunderground v.1.15,2013-04-24 02:54:00,
2013-04-23 23:01:00,53.6,51.3,30.03,SE,142,0.0,9.0,92,0.00,,,0.00,Wunderground v.1.15,2013-04-24 03:01:00,
2013-04-23 23:07:00,53.5,51.2,30.03,SE,142,0.0,9.0,92,0.00,,,0.00,Wunderground v.1.15,2013-04-24 03:07:00,
2013-04-23 23:13:00,53.3,51.0,30.03,SE,142,0.0,9.0,92,0.00,,,0.00,Wunderground v.1.15,2013-04-24 03:13:00,
2013-04-23 23:20:00,53.3,51.0,30.02,SE,142,0.0,9.0,92,0.00,,,0.00,Wunderground v.1.15,2013-04-24 03:20:00,
2013-04-23 23:26:00,53.2,50.9,30.02,SE,142,0.0,9.0,92,0.00,,,0.00,Wunderground v.1.15,2013-04-24 03:26:00,
2013-04-23 23:32:00,53.2,50.9,30.02,SE,142,0.0,9.0,92,0.00,,,0.00,Wunderground v.1.15,2013-04-24 03:32:00,
2013-04-23 23:37:00,53.2,50.9,30.02,SE,142,0.0,9.0,92,0.00,,,0.00,Wunderground v.1.15,2013-04-24 03:37:00,
2013-04-23 23:43:00,53.1,50.8,30.02,SE,142,0.0,9.0,92,0.00,,,0.00,Wunderground v.1.15,2013-04-24 03:43:00,
2013-04-23 23:48:00,53.1,50.8,30.02,SE,142,0.0,9.0,92,0.00,,,0.00,Wunderground v.1.15,2013-04-24 03:48:00,
2013-04-23 23:54:00,52.9,50.6,30.02,SE,142,0.0,9.0,92,0.00,,,0.00,Wunderground v.1.15,2013-04-24 03:54:00,
2013-04-23 23:59:00,52.8,50.5,30.02,SE,142,0.0,9.0,92,0.00,,,0.00,Wunderground v.1.15,2013-04-24 03:59:00,